Location: Cran-Gévrier
(45.9039°N, 6.1012°E)
Time: 09:43:59
(UTC+00:00)

METEOR M2 - Visible Passes

Search period start: 02 December 2023 00:00
Search period end: 12 December 2023 00:00
Orbit: 819 x 826 km, 98.4° (Epoch: 01 December)

Date Brightness Start Highest point End Pass type
(mag) Time Alt. Az. Time Alt. Az. Time Alt. Az.
02 Dec ? 04:20:56 10° NE 04:24:47 20° E 04:28:36 10° SE visible
02 Dec ? 06:00:04 10° N 06:05:23 62° WNW 06:10:39 10° SSW visible
02 Dec ? 17:25:44 10° SSW 17:30:29 31° W 17:35:16 10° NNW visible
03 Dec ? 04:02:01 10° ENE 04:04:26 13° E 04:06:49 10° ESE visible
03 Dec ? 05:39:55 10° NNE 05:45:20 89° W 05:50:42 10° SSW visible
03 Dec ? 17:05:08 10° S 17:10:17 46° W 17:15:29 10° NNW visible
04 Dec ? 05:19:53 10° NNE 05:25:13 63° E 05:30:31 10° S visible
04 Dec ? 16:44:47 10° S 16:50:08 68° WSW 16:55:32 10° NNW visible
05 Dec ? 04:59:57 10° NNE 05:05:04 42° E 05:10:07 10° SSE visible
05 Dec ? 16:24:39 10° SSE 16:30:02 83° ENE 16:35:28 10° NNW visible
05 Dec ? 18:08:02 10° WSW 18:10:52 14° W 18:13:43 10° NW visible
06 Dec ? 04:40:12 10° NE 04:44:50 29° E 04:49:26 10° SSE visible
06 Dec ? 06:20:05 10° N 06:25:08 42° WNW 06:30:08 10° SW visible
06 Dec ? 17:46:29 10° SW 17:50:32 21° W 17:54:36 10° NW visible
07 Dec ? 04:20:42 10° NE 04:24:33 20° E 04:28:22 10° SE visible
07 Dec ? 05:59:50 10° N 06:05:08 62° WNW 06:10:24 10° SSW visible
07 Dec ? 17:25:31 10° SSW 17:30:16 31° W 17:35:02 10° NNW visible
08 Dec ? 04:01:45 10° ENE 04:04:11 13° E 04:06:37 10° ESE visible
08 Dec ? 05:39:41 10° NNE 05:45:05 89° WNW 05:50:27 10° SSW visible
08 Dec ? 17:04:54 10° S 17:10:03 46° W 17:15:14 10° NNW visible
09 Dec ? 05:19:38 10° NNE 05:24:59 63° E 05:30:17 10° S visible
09 Dec ? 16:44:32 10° S 16:49:54 68° WSW 16:55:17 10° NNW visible
10 Dec ? 04:59:43 10° NNE 05:04:49 42° E 05:09:52 10° S visible
10 Dec ? 16:24:24 10° SSE 16:29:48 84° ENE 16:35:13 10° NNW visible
10 Dec ? 18:07:50 10° WSW 18:10:38 14° W 18:13:27 10° NW visible
11 Dec ? 04:39:56 10° NE 04:44:35 29° E 04:49:12 10° SSE visible
11 Dec ? 06:19:50 10° N 06:24:51 42° WNW 06:29:52 10° SW visible
11 Dec ? 17:46:16 10° SW 17:50:17 21° W 17:54:20 10° NW visible
